sat.trackr.live / text

‹ back to catalog

STARLINK-4106

NORAD 53145 · 2022-083P

PAYLOAD ACTIVE UNKNOWN

§ Identity

Operator
Country
US
Launch date
2022-07-17
Launch site
AFETR
Launch vehicle
Mass (kg)
RCS (m²)

Purposes: comms

External: N2YO · Heavens-Above · Gunter

§ Orbital elements

Epoch: 2026-05-24T13:05:14.344224Z

Period
95.44 min
Inclination
53.2138°
Eccentricity
0.0000910
Mean motion
15.08837010 rev/d
Perigee alt
539.1 km
Apogee alt
540.4 km
Semi-major
6,917.9 km
B*
2.7206e-5
RAAN
193.5914°
Arg perigee
73.6441°
Mean anomaly
286.4652°
Rev number
21,267

§ Raw data

STARLINK-41061 53145U 22083P   26144.54530491  .00000145  00000+0  27206-4 0  99912 53145  53.2138 193.5914 0000910  73.6441 286.4652 15.08837010212673

JSON: /api/v1/satellites/53145 · /tle

For live sub-satellite position, see the globe view (requires WebGL).

§ Visibility from observer

Set your observer location to see the next 7 days of passes ≥ 10°. The values pass through the URL so the page stays shareable.

No JS? Fill the form by hand. The geolocation button needs JavaScript.